owner,sensor,date,latitude,longitude,vertical_datum,direction_of_sea_water_velocity,sea_water_speed,upward_sea_water_velocity,qcFlag 
TABS,ioos:station:wmo:42051:1,2015-04-01T00:00:00Z,29.6350,-93.6417,2.0,17.53927812,12.74237419,-99999.0,'11111222,11111222,99999999' 
TABS,ioos:station:wmo:42051:1,2015-04-01T00:30:00Z,29.6350,-93.6417,2.0,8.928525332,10.76038103,-99999.0,'11111222,11111222,99999999' 
TABS,ioos:station:wmo:42051:1,2015-04-01T01:00:00Z,29.6350,-93.6417,2.0,15.86892337,13.34871155,-99999.0,'11111222,11111222,99999999' 
TABS,ioos:station:wmo:42051:1,2015-04-01T01:30:00Z,29.6350,-93.6417,2.0,20.66688257,15.7537678,-99999.0,'11111222,11111222,99999999' 
TABS,ioos:station:wmo:42051:1,2015-04-01T02:00:00Z,29.6350,-93.6417,2.0,26.10120773,14.9105902,-99999.0,'11111222,11111222,99999999' 
TABS,ioos:station:wmo:42051:1,2015-04-01T02:30:00Z,29.6350,-93.6417,2.0,31.37108213,11.58330695,-99999.0,'11111222,11111222,99999999' 
TABS,ioos:station:wmo:42051:1,2015-04-01T03:00:00Z,29.6350,-93.6417,2.0,28.0347353,8.893531357,-99999.0,'11133222,11111222,99999999' 
TABS,ioos:station:wmo:42051:1,2015-04-01T03:30:00Z,29.6350,-93.6417,2.0,42.06443865,10.49309297,-99999.0,'11111222,11111222,99999999' 
TABS,ioos:station:wmo:42051:1,2015-04-01T04:00:00Z,29.6350,-93.6417,2.0,40.19384959,13.41857295,-99999.0,'11111222,11111222,99999999' 
TABS,ioos:station:wmo:42051:1,2015-04-01T04:30:00Z,29.6350,-93.6417,2.0,34.09510868,8.634124159,-99999.0,'11133222,11111222,99999999' 
TABS,ioos:station:wmo:42051:1,2015-04-01T05:00:00Z,29.6350,-93.6417,2.0,57.4906796,12.65262423,-99999.0,'11111222,11111222,99999999' 
TABS,ioos:station:wmo:42051:1,2015-04-01T05:30:00Z,29.6350,-93.6417,2.0,87.37031527,9.590099061,-99999.0,'11133222,11111222,99999999' 
TABS,ioos:station:wmo:42051:1,2015-04-01T06:00:00Z,29.6350,-93.6417,2.0,70.25166762,8.967413228,-99999.0,'11133222,11111222,99999999' 
TABS,ioos:station:wmo:42051:1,2015-04-01T06:30:00Z,29.6350,-93.6417,2.0,142.2956345,4.12043687,-99999.0,'11133222,11111222,99999999' 
TABS,ioos:station:wmo:42051:1,2015-04-01T07:00:00Z,29.6350,-93.6417,2.0,129.7873522,4.047245977,-99999.0,'11133222,11111222,99999999' 
TABS,ioos:station:wmo:42051:1,2015-04-01T07:30:00Z,29.6350,-93.6417,2.0,187.823482,3.966925762,-99999.0,'11133222,11111222,99999999' 
TABS,ioos:station:wmo:42051:1,2015-04-01T08:00:00Z,29.6350,-93.6417,2.0,124.638642,3.85292097,-99999.0,'11133222,11111222,99999999' 
TABS,ioos:station:wmo:42051:1,2015-04-01T08:30:00Z,29.6350,-93.6417,2.0,160.7227885,6.239847755,-99999.0,'11133222,11111222,99999999' 
TABS,ioos:station:wmo:42051:1,2015-04-01T09:00:00Z,29.6350,-93.6417,2.0,180.8796876,5.860691086,-99999.0,'11133222,11111222,99999999' 
TABS,ioos:station:wmo:42051:1,2015-04-01T09:30:00Z,29.6350,-93.6417,2.0,215.7507559,6.555249805,-99999.0,'11133222,11111222,99999999' 
TABS,ioos:station:wmo:42051:1,2015-04-01T10:00:00Z,29.6350,-93.6417,2.0,198.9586322,5.878919969,-99999.0,'11133222,11111222,99999999' 
TABS,ioos:station:wmo:42051:1,2015-04-01T10:30:00Z,29.6350,-93.6417,2.0,163.8691287,10.61802712,-99999.0,'11111222,11111222,99999999' 
TABS,ioos:station:wmo:42051:1,2015-04-01T11:00:00Z,29.6350,-93.6417,2.0,147.6906556,11.39407741,-99999.0,'11111222,11111222,99999999' 
TABS,ioos:station:wmo:42051:1,2015-04-01T11:30:00Z,29.6350,-93.6417,2.0,165.0066898,10.16608578,-99999.0,'11111222,11111222,99999999' 
TABS,ioos:station:wmo:42051:1,2015-04-01T12:00:00Z,29.6350,-93.6417,2.0,167.7670309,6.088234555,-99999.0,'11133222,11111222,99999999' 
TABS,ioos:station:wmo:42051:1,2015-04-01T12:30:00Z,29.6350,-93.6417,2.0,216.0795177,10.44299287,-99999.0,'11111222,11111222,99999999' 
TABS,ioos:station:wmo:42051:1,2015-04-01T13:00:00Z,29.6350,-93.6417,2.0,246.4375106,6.829385038,-99999.0,'11133222,11111222,99999999' 
TABS,ioos:station:wmo:42051:1,2015-04-01T13:30:00Z,29.6350,-93.6417,2.0,234.353094,10.39837006,-99999.0,'11111222,11111222,99999999' 
TABS,ioos:station:wmo:42051:1,2015-04-01T14:00:00Z,29.6350,-93.6417,2.0,249.8601404,16.90352922,-99999.0,'11111222,11111222,99999999' 
TABS,ioos:station:wmo:42051:1,2015-04-01T14:30:00Z,29.6350,-93.6417,2.0,255.5477745,9.696829379,-99999.0,'11133222,11111222,99999999' 
TABS,ioos:station:wmo:42051:1,2015-04-01T15:00:00Z,29.6350,-93.6417,2.0,263.8641633,23.4845183,-99999.0,'11111222,11111222,99999999' 
TABS,ioos:station:wmo:42051:1,2015-04-01T15:30:00Z,29.6350,-93.6417,2.0,269.5539813,24.43073883,-99999.0,'11111222,11111222,99999999' 
TABS,ioos:station:wmo:42051:1,2015-04-01T16:00:00Z,29.6350,-93.6417,2.0,268.0402919,23.98402176,-99999.0,'11111222,11111222,99999999' 
TABS,ioos:station:wmo:42051:1,2015-04-01T16:30:00Z,29.6350,-93.6417,2.0,279.0276663,30.52812801,-99999.0,'11111222,11111222,99999999' 
TABS,ioos:station:wmo:42051:1,2015-04-01T17:00:00Z,29.6350,-93.6417,2.0,254.9639845,22.66597671,-99999.0,'11111222,11111222,99999999' 
TABS,ioos:station:wmo:42051:1,2015-04-01T17:30:00Z,29.6350,-93.6417,2.0,258.1613962,25.7374144,-99999.0,'11111222,11111222,99999999' 
TABS,ioos:station:wmo:42051:1,2015-04-01T18:00:00Z,29.6350,-93.6417,2.0,270.9259566,24.76323081,-99999.0,'11111222,11111222,99999999' 
TABS,ioos:station:wmo:42051:1,2015-04-01T18:30:00Z,29.6350,-93.6417,2.0,265.4469519,26.83466788,-99999.0,'11111222,11111222,99999999' 
TABS,ioos:station:wmo:42051:1,2015-04-01T19:00:00Z,29.6350,-93.6417,2.0,262.5648503,29.59884119,-99999.0,'11111222,11111222,99999999' 
TABS,ioos:station:wmo:42051:1,2015-04-01T19:30:00Z,29.6350,-93.6417,2.0,264.3672955,29.85412869,-99999.0,'11111222,11111222,99999999' 
TABS,ioos:station:wmo:42051:1,2015-04-01T20:00:00Z,29.6350,-93.6417,2.0,273.5823856,31.69191222,-99999.0,'11111222,11111222,99999999' 
TABS,ioos:station:wmo:42051:1,2015-04-01T20:30:00Z,29.6350,-93.6417,2.0,295.2619704,31.25937459,-99999.0,'11111222,11111222,99999999' 
TABS,ioos:station:wmo:42051:1,2015-04-01T21:00:00Z,29.6350,-93.6417,2.0,297.1827287,32.79160411,-99999.0,'11111222,11111222,99999999' 
TABS,ioos:station:wmo:42051:1,2015-04-01T21:30:00Z,29.6350,-93.6417,2.0,304.6622528,32.70428107,-99999.0,'11111222,11111222,99999999' 
TABS,ioos:station:wmo:42051:1,2015-04-01T22:00:00Z,29.6350,-93.6417,2.0,314.4453841,35.77420998,-99999.0,'11111222,11111222,99999999' 
TABS,ioos:station:wmo:42051:1,2015-04-01T22:30:00Z,29.6350,-93.6417,2.0,314.1252699,33.33690148,-99999.0,'11111222,11111222,99999999' 
TABS,ioos:station:wmo:42051:1,2015-04-01T23:00:00Z,29.6350,-93.6417,2.0,317.9778296,37.43527347,-99999.0,'11111222,11111222,99999999' 
TABS,ioos:station:wmo:42051:1,2015-04-01T23:30:00Z,29.6350,-93.6417,2.0,319.4920766,32.05260208,-99999.0,'11111222,11111222,99999999' 
TABS,ioos:station:wmo:42051:1,2015-04-02T00:00:00Z,29.6350,-93.6417,2.0,329.0451513,34.17795342,-99999.0,'11111222,11111222,99999999' 
TABS,ioos:station:wmo:42051:1,2015-04-02T00:30:00Z,29.6350,-93.6417,2.0,331.8042934,31.11183698,-99999.0,'11111222,11111222,99999999' 
TABS,ioos:station:wmo:42051:1,2015-04-02T01:00:00Z,29.6350,-93.6417,2.0,328.7874972,26.43675661,-99999.0,'11111222,11111222,99999999' 
TABS,ioos:station:wmo:42051:1,2015-04-02T01:30:00Z,29.6350,-93.6417,2.0,335.7342089,29.32056275,-99999.0,'11111222,11111222,99999999' 
TABS,ioos:station:wmo:42051:1,2015-04-02T02:00:00Z,29.6350,-93.6417,2.0,352.3750039,25.99991154,-99999.0,'11111222,11111222,99999999' 
TABS,ioos:station:wmo:42051:1,2015-04-02T02:30:00Z,29.6350,-93.6417,2.0,358.4869053,23.0980562,-99999.0,'11111222,11111222,99999999' 
TABS,ioos:station:wmo:42051:1,2015-04-02T03:00:00Z,29.6350,-93.6417,2.0,355.8643804,23.57138307,-99999.0,'11111222,11111222,99999999' 
TABS,ioos:station:wmo:42051:1,2015-04-02T03:30:00Z,29.6350,-93.6417,2.0,353.6430838,22.3977231,-99999.0,'11111222,11111222,99999999' 
TABS,ioos:station:wmo:42051:1,2015-04-02T04:00:00Z,29.6350,-93.6417,2.0,9.141453677,17.30984113,-99999.0,'11111222,11111222,99999999' 
TABS,ioos:station:wmo:42051:1,2015-04-02T04:30:00Z,29.6350,-93.6417,2.0,11.19094934,18.85856834,-99999.0,'11111222,11111222,99999999' 
TABS,ioos:station:wmo:42051:1,2015-04-02T05:00:00Z,29.6350,-93.6417,2.0,20.83428771,12.5399362,-99999.0,'11111222,11111222,99999999' 
TABS,ioos:station:wmo:42051:1,2015-04-02T05:30:00Z,29.6350,-93.6417,2.0,4.334177433,15.61465017,-99999.0,'11111222,11111222,99999999' 
TABS,ioos:station:wmo:42051:1,2015-04-02T06:00:00Z,29.6350,-93.6417,2.0,340.3491842,14.00572026,-99999.0,'11111222,11111222,99999999' 
TABS,ioos:station:wmo:42051:1,2015-04-02T06:30:00Z,29.6350,-93.6417,2.0,336.2880465,10.69271247,-99999.0,'11111222,11111222,99999999' 
TABS,ioos:station:wmo:42051:1,2015-04-02T07:00:00Z,29.6350,-93.6417,2.0,323.8287418,11.97888976,-99999.0,'11111222,11111222,99999999' 
TABS,ioos:station:wmo:42051:1,2015-04-02T07:30:00Z,29.6350,-93.6417,2.0,324.6121887,14.69491409,-99999.0,'11111222,11111222,99999999' 
TABS,ioos:station:wmo:42051:1,2015-04-02T08:00:00Z,29.6350,-93.6417,2.0,325.7452871,16.87757388,-99999.0,'11111222,11111222,99999999' 
TABS,ioos:station:wmo:42051:1,2015-04-02T08:30:00Z,29.6350,-93.6417,2.0,314.2789375,10.6710871,-99999.0,'11111222,11111222,99999999' 
TABS,ioos:station:wmo:42051:1,2015-04-02T09:00:00Z,29.6350,-93.6417,2.0,338.5248794,6.200467724,-99999.0,'11133222,11111222,99999999' 
TABS,ioos:station:wmo:42051:1,2015-04-02T09:30:00Z,29.6350,-93.6417,2.0,328.0628454,6.257171885,-99999.0,'11133222,11111222,99999999' 
TABS,ioos:station:wmo:42051:1,2015-04-02T10:00:00Z,29.6350,-93.6417,2.0,327.8526287,5.976286472,-99999.0,'11133222,11111222,99999999' 
TABS,ioos:station:wmo:42051:1,2015-04-02T10:30:00Z,29.6350,-93.6417,2.0,346.343893,8.047508931,-99999.0,'11133222,11111222,99999999' 
TABS,ioos:station:wmo:42051:1,2015-04-02T11:00:00Z,29.6350,-93.6417,2.0,346.256322,8.081392207,-99999.0,'11133222,11111222,99999999' 
TABS,ioos:station:wmo:42051:1,2015-04-02T11:30:00Z,29.6350,-93.6417,2.0,12.97258408,9.666710919,-99999.0,'11133222,11111222,99999999' 
TABS,ioos:station:wmo:42051:1,2015-04-02T12:00:00Z,29.6350,-93.6417,2.0,333.0219146,4.959727815,-99999.0,'11133222,11111222,99999999' 
TABS,ioos:station:wmo:42051:1,2015-04-02T12:30:00Z,29.6350,-93.6417,2.0,323.8070878,6.096425182,-99999.0,'11133222,11111222,99999999' 
TABS,ioos:station:wmo:42051:1,2015-04-02T13:00:00Z,29.6350,-93.6417,2.0,331.6027269,6.013626194,-99999.0,'11133222,11111222,99999999' 
TABS,ioos:station:wmo:42051:1,2015-04-02T13:30:00Z,29.6350,-93.6417,2.0,105.9453586,0.218403297,-99999.0,'11133222,11111222,99999999' 
TABS,ioos:station:wmo:42051:1,2015-04-02T14:00:00Z,29.6350,-93.6417,2.0,351.6314551,5.771455622,-99999.0,'11133222,11111222,99999999' 
TABS,ioos:station:wmo:42051:1,2015-04-02T14:30:00Z,29.6350,-93.6417,2.0,338.406223,8.722167162,-99999.0,'11133222,11111222,99999999' 
TABS,ioos:station:wmo:42051:1,2015-04-02T15:00:00Z,29.6350,-93.6417,2.0,1.126908461,13.22255649,-99999.0,'11111222,11111222,99999999' 
TABS,ioos:station:wmo:42051:1,2015-04-02T15:30:00Z,29.6350,-93.6417,2.0,20.26256888,15.07275688,-99999.0,'11111222,11111222,99999999' 
TABS,ioos:station:wmo:42051:1,2015-04-02T16:00:00Z,29.6350,-93.6417,2.0,13.0079035,13.10631146,-99999.0,'11111222,11111222,99999999' 
TABS,ioos:station:wmo:42051:1,2015-04-02T16:30:00Z,29.6350,-93.6417,2.0,11.39231965,10.93544695,-99999.0,'11111222,11111222,99999999' 
TABS,ioos:station:wmo:42051:1,2015-04-02T17:00:00Z,29.6350,-93.6417,2.0,2.798314094,12.90538647,-99999.0,'11111222,11111222,99999999' 
TABS,ioos:station:wmo:42051:1,2015-04-02T17:30:00Z,29.6350,-93.6417,2.0,346.5755238,13.18013657,-99999.0,'11111222,11111222,99999999' 
TABS,ioos:station:wmo:42051:1,2015-04-02T18:00:00Z,29.6350,-93.6417,2.0,1.047024365,12.0420098,-99999.0,'11111222,11111222,99999999' 
TABS,ioos:station:wmo:42051:1,2015-04-02T18:30:00Z,29.6350,-93.6417,2.0,351.3270567,8.355549054,-99999.0,'11133222,11111222,99999999' 
TABS,ioos:station:wmo:42051:1,2015-04-02T19:00:00Z,29.6350,-93.6417,2.0,352.5688199,9.973775614,-99999.0,'11133222,11111222,99999999' 
TABS,ioos:station:wmo:42051:1,2015-04-02T19:30:00Z,29.6350,-93.6417,2.0,328.0933221,8.022075791,-99999.0,'11133222,11111222,99999999' 
TABS,ioos:station:wmo:42051:1,2015-04-02T20:00:00Z,29.6350,-93.6417,2.0,331.8683457,8.50471046,-99999.0,'11133222,11111222,99999999' 
TABS,ioos:station:wmo:42051:1,2015-04-02T20:30:00Z,29.6350,-93.6417,2.0,346.3860595,14.48704594,-99999.0,'11111222,11111222,99999999' 
TABS,ioos:station:wmo:42051:1,2015-04-02T21:00:00Z,29.6350,-93.6417,2.0,356.851019,10.37566865,-99999.0,'11111222,11111222,99999999' 
TABS,ioos:station:wmo:42051:1,2015-04-02T21:30:00Z,29.6350,-93.6417,2.0,291.6631612,6.907886797,-99999.0,'11133222,11111222,99999999' 
TABS,ioos:station:wmo:42051:1,2015-04-02T22:00:00Z,29.6350,-93.6417,2.0,294.3660672,6.059735968,-99999.0,'11133222,11111222,99999999' 
TABS,ioos:station:wmo:42051:1,2015-04-02T22:30:00Z,29.6350,-93.6417,2.0,286.2974547,5.594801158,-99999.0,'11133222,11111222,99999999' 
TABS,ioos:station:wmo:42051:1,2015-04-02T23:00:00Z,29.6350,-93.6417,2.0,275.0725419,6.786574983,-99999.0,'11133222,11111222,99999999' 
TABS,ioos:station:wmo:42051:1,2015-04-02T23:30:00Z,29.6350,-93.6417,2.0,255.9143559,2.835242494,-99999.0,'11133222,11111222,99999999' 
TABS,ioos:station:wmo:42051:1,2015-04-03T00:00:00Z,29.6350,-93.6417,2.0,266.9408887,3.935606688,-99999.0,'11133222,11111222,99999999' 
TABS,ioos:station:wmo:42051:1,2015-04-03T00:30:00Z,29.6350,-93.6417,2.0,187.5415497,3.58097752,-99999.0,'11133222,11111222,99999999' 
TABS,ioos:station:wmo:42051:1,2015-04-03T01:00:00Z,29.6350,-93.6417,2.0,170.3703776,3.945592478,-99999.0,'11133222,11111222,99999999' 
TABS,ioos:station:wmo:42051:1,2015-04-03T01:30:00Z,29.6350,-93.6417,2.0,238.1088619,4.24,-99999.0,'11133222,11111222,99999999' 
TABS,ioos:station:wmo:42051:1,2015-04-03T02:00:00Z,29.6350,-93.6417,2.0,190.6414525,3.194949139,-99999.0,'11133222,11111222,99999999' 
TABS,ioos:station:wmo:42051:1,2015-04-03T02:30:00Z,29.6350,-93.6417,2.0,175.5799287,2.076174366,-99999.0,'11133222,11111222,99999999' 
TABS,ioos:station:wmo:42051:1,2015-04-03T03:00:00Z,29.6350,-93.6417,2.0,227.2138788,8.052887681,-99999.0,'11133222,11111222,99999999' 
TABS,ioos:station:wmo:42051:1,2015-04-03T03:30:00Z,29.6350,-93.6417,2.0,197.3997112,2.976188838,-99999.0,'11133222,11111222,99999999' 
TABS,ioos:station:wmo:42051:1,2015-04-03T04:00:00Z,29.6350,-93.6417,2.0,221.1648101,5.180550164,-99999.0,'11133222,11111222,99999999' 
TABS,ioos:station:wmo:42051:1,2015-04-03T04:30:00Z,29.6350,-93.6417,2.0,266.1636585,5.231720558,-99999.0,'11133222,11111222,99999999' 
TABS,ioos:station:wmo:42051:1,2015-04-03T05:00:00Z,29.6350,-93.6417,2.0,243.3636796,3.613488619,-99999.0,'11133222,11111222,99999999' 
TABS,ioos:station:wmo:42051:1,2015-04-03T05:30:00Z,29.6350,-93.6417,2.0,224.5222317,3.394230399,-99999.0,'11133222,11111222,99999999' 
TABS,ioos:station:wmo:42051:1,2015-04-03T06:00:00Z,29.6350,-93.6417,2.0,244.9827441,3.641647979,-99999.0,'11133222,11111222,99999999' 
TABS,ioos:station:wmo:42051:1,2015-04-03T06:30:00Z,29.6350,-93.6417,2.0,40.60141016,1.198540779,-99999.0,'11133222,11111222,99999999' 
TABS,ioos:station:wmo:42051:1,2015-04-03T07:00:00Z,29.6350,-93.6417,2.0,217.4050587,0.856037382,-99999.0,'11133222,11111222,99999999' 
TABS,ioos:station:wmo:42051:1,2015-04-03T07:30:00Z,29.6350,-93.6417,2.0,225.9466335,3.422864298,-99999.0,'11133222,11111222,99999999' 
TABS,ioos:station:wmo:42051:1,2015-04-03T08:00:00Z,29.6350,-93.6417,2.0,194.9860212,3.364431601,-99999.0,'11133222,11111222,99999999' 
TABS,ioos:station:wmo:42051:1,2015-04-03T08:30:00Z,29.6350,-93.6417,2.0,158.7996225,3.539547994,-99999.0,'11133222,11111222,99999999' 
TABS,ioos:station:wmo:42051:1,2015-04-03T09:00:00Z,29.6350,-93.6417,2.0,185.3950415,3.616019911,-99999.0,'11133222,11111222,99999999' 
TABS,ioos:station:wmo:42051:1,2015-04-03T09:30:00Z,29.6350,-93.6417,2.0,146.2836265,6.071194281,-99999.0,'11133222,11111222,99999999' 
TABS,ioos:station:wmo:42051:1,2015-04-03T10:00:00Z,29.6350,-93.6417,2.0,155.1574585,5.355567197,-99999.0,'11133222,11111222,99999999' 
TABS,ioos:station:wmo:42051:1,2015-04-03T10:30:00Z,29.6350,-93.6417,2.0,156.0636793,6.630211158,-99999.0,'11133222,11111222,99999999' 
TABS,ioos:station:wmo:42051:1,2015-04-03T11:00:00Z,29.6350,-93.6417,2.0,205.874503,3.712142239,-99999.0,'11133222,11111222,99999999' 
TABS,ioos:station:wmo:42051:1,2015-04-03T11:30:00Z,29.6350,-93.6417,2.0,166.7841362,6.604922407,-99999.0,'11133222,11111222,99999999' 
TABS,ioos:station:wmo:42051:1,2015-04-03T12:00:00Z,29.6350,-93.6417,2.0,152.9885283,7.464221326,-99999.0,'11133222,11111222,99999999' 
TABS,ioos:station:wmo:42051:1,2015-04-03T12:30:00Z,29.6350,-93.6417,2.0,158.6069492,6.250663965,-99999.0,'11133222,11111222,99999999' 
TABS,ioos:station:wmo:42051:1,2015-04-03T13:00:00Z,29.6350,-93.6417,2.0,164.2767613,9.557619997,-99999.0,'11133222,11111222,99999999' 
TABS,ioos:station:wmo:42051:1,2015-04-03T13:30:00Z,29.6350,-93.6417,2.0,165.0797649,9.748666575,-99999.0,'11133222,11111222,99999999' 
TABS,ioos:station:wmo:42051:1,2015-04-03T14:00:00Z,29.6350,-93.6417,2.0,141.8785113,8.974140627,-99999.0,'11133222,11111222,99999999' 
TABS,ioos:station:wmo:42051:1,2015-04-03T14:30:00Z,29.6350,-93.6417,2.0,151.6709863,5.521231747,-99999.0,'11133222,11111222,99999999' 
TABS,ioos:station:wmo:42051:1,2015-04-03T15:00:00Z,29.6350,-93.6417,2.0,159.2447204,5.389777361,-99999.0,'11133222,11111222,99999999' 
TABS,ioos:station:wmo:42051:1,2015-04-03T15:30:00Z,29.6350,-93.6417,2.0,155.4847761,4.000649947,-99999.0,'11133222,11111222,99999999' 
TABS,ioos:station:wmo:42051:1,2015-04-03T16:00:00Z,29.6350,-93.6417,2.0,157.2701106,3.209236669,-99999.0,'11133222,11111222,99999999' 
TABS,ioos:station:wmo:42051:1,2015-04-03T16:30:00Z,29.6350,-93.6417,2.0,136.0368068,3.125923863,-99999.0,'11133222,11111222,99999999' 
TABS,ioos:station:wmo:42051:1,2015-04-03T17:00:00Z,29.6350,-93.6417,2.0,168.7938682,6.483610105,-99999.0,'11133222,11111222,99999999' 
TABS,ioos:station:wmo:42051:1,2015-04-03T17:30:00Z,29.6350,-93.6417,2.0,187.0945221,2.347977853,-99999.0,'11133222,11111222,99999999' 
TABS,ioos:station:wmo:42051:1,2015-04-03T18:00:00Z,29.6350,-93.6417,2.0,168.0529838,4.057893542,-99999.0,'11133222,11111222,99999999' 
TABS,ioos:station:wmo:42051:1,2015-04-03T18:30:00Z,29.6350,-93.6417,2.0,158.8435558,3.463437599,-99999.0,'11133222,11111222,99999999' 
TABS,ioos:station:wmo:42051:1,2015-04-03T19:00:00Z,29.6350,-93.6417,2.0,198.5855296,8.408525436,-99999.0,'11133222,11111222,99999999' 
TABS,ioos:station:wmo:42051:1,2015-04-03T19:30:00Z,29.6350,-93.6417,2.0,160.4740283,4.817021902,-99999.0,'11133222,11111222,99999999' 
TABS,ioos:station:wmo:42051:1,2015-04-03T20:00:00Z,29.6350,-93.6417,2.0,196.882896,5.371517476,-99999.0,'11133222,11111222,99999999' 
TABS,ioos:station:wmo:42051:1,2015-04-03T20:30:00Z,29.6350,-93.6417,2.0,197.5201332,5.547341706,-99999.0,'11133222,11111222,99999999' 
TABS,ioos:station:wmo:42051:1,2015-04-03T21:00:00Z,29.6350,-93.6417,2.0,202.0722076,3.140143309,-99999.0,'11133222,11111222,99999999' 
TABS,ioos:station:wmo:42051:1,2015-04-03T21:30:00Z,29.6350,-93.6417,2.0,194.0360002,5.524961538,-99999.0,'11133222,11111222,99999999' 
TABS,ioos:station:wmo:42051:1,2015-04-03T22:00:00Z,29.6350,-93.6417,2.0,167.2778993,7.401709262,-99999.0,'11133222,11111222,99999999' 
TABS,ioos:station:wmo:42051:1,2015-04-03T22:30:00Z,29.6350,-93.6417,2.0,161.2812443,3.832727488,-99999.0,'11133222,11111222,99999999' 
TABS,ioos:station:wmo:42051:1,2015-04-03T23:00:00Z,29.6350,-93.6417,2.0,150.7614591,5.752955762,-99999.0,'11133222,11111222,99999999' 
TABS,ioos:station:wmo:42051:1,2015-04-04T01:30:00Z,29.6350,-93.6417,2.0,185.9703223,7.018069535,-99999.0,'11133222,11111222,99999999' 
TABS,ioos:station:wmo:42051:1,2015-04-04T02:00:00Z,29.6350,-93.6417,2.0,203.2620868,5.899601681,-99999.0,'11133222,11111222,99999999' 
TABS,ioos:station:wmo:42051:1,2015-04-04T02:30:00Z,29.6350,-93.6417,2.0,207.6052902,4.186609607,-99999.0,'11133222,11111222,99999999' 
TABS,ioos:station:wmo:42051:1,2015-04-04T03:00:00Z,29.6350,-93.6417,2.0,261.6864432,4.426511041,-99999.0,'11133222,11111222,99999999' 
TABS,ioos:station:wmo:42051:1,2015-04-04T03:30:00Z,29.6350,-93.6417,2.0,266.7394261,6.330244861,-99999.0,'11133222,11111222,99999999' 
TABS,ioos:station:wmo:42051:1,2015-04-04T04:00:00Z,29.6350,-93.6417,2.0,303.0613183,20.71375388,-99999.0,'11111222,11111222,99999999' 
TABS,ioos:station:wmo:42051:1,2015-04-04T04:30:00Z,29.6350,-93.6417,2.0,296.4730164,22.18629532,-99999.0,'11111222,11111222,99999999' 
TABS,ioos:station:wmo:42051:1,2015-04-04T05:00:00Z,29.6350,-93.6417,2.0,296.1269315,17.53128632,-99999.0,'11111222,11111222,99999999' 
TABS,ioos:station:wmo:42051:1,2015-04-04T05:30:00Z,29.6350,-93.6417,2.0,296.2876151,18.44777764,-99999.0,'11111222,11111222,99999999' 
TABS,ioos:station:wmo:42051:1,2015-04-04T06:00:00Z,29.6350,-93.6417,2.0,299.9855104,16.26729848,-99999.0,'11111222,11111222,99999999' 
TABS,ioos:station:wmo:42051:1,2015-04-04T06:30:00Z,29.6350,-93.6417,2.0,296.7182489,13.41198345,-99999.0,'11111222,11111222,99999999' 
TABS,ioos:station:wmo:42051:1,2015-04-04T07:00:00Z,29.6350,-93.6417,2.0,291.8017794,8.239302155,-99999.0,'11133222,11111222,99999999' 
TABS,ioos:station:wmo:42051:1,2015-04-04T07:30:00Z,29.6350,-93.6417,2.0,264.1816733,6.905570215,-99999.0,'11133222,11111222,99999999' 
TABS,ioos:station:wmo:42051:1,2015-04-04T08:00:00Z,29.6350,-93.6417,2.0,227.5267005,19.72624901,-99999.0,'11111222,11111222,99999999' 
TABS,ioos:station:wmo:42051:1,2015-04-04T08:30:00Z,29.6350,-93.6417,2.0,227.7079884,27.83452892,-99999.0,'11111222,11111222,99999999' 
TABS,ioos:station:wmo:42051:1,2015-04-04T09:00:00Z,29.6350,-93.6417,2.0,225.7583269,41.12186401,-99999.0,'11111222,11111222,99999999' 
TABS,ioos:station:wmo:42051:1,2015-04-04T09:30:00Z,29.6350,-93.6417,2.0,227.7718346,47.07769323,-99999.0,'11111222,11111222,99999999' 
TABS,ioos:station:wmo:42051:1,2015-04-04T10:00:00Z,29.6350,-93.6417,2.0,234.9302551,52.77005306,-99999.0,'11111222,11111222,99999999' 
TABS,ioos:station:wmo:42051:1,2015-04-04T10:30:00Z,29.6350,-93.6417,2.0,236.2947899,53.68388678,-99999.0,'11111222,11111222,99999999' 
TABS,ioos:station:wmo:42051:1,2015-04-04T11:00:00Z,29.6350,-93.6417,2.0,244.7596193,58.01911754,-99999.0,'11111222,11111222,99999999' 
TABS,ioos:station:wmo:42051:1,2015-04-04T11:30:00Z,29.6350,-93.6417,2.0,244.2617375,65.67568804,-99999.0,'11111222,11111222,99999999' 
TABS,ioos:station:wmo:42051:1,2015-04-04T12:00:00Z,29.6350,-93.6417,2.0,252.2729114,63.19029751,-99999.0,'11111222,11111222,99999999' 
TABS,ioos:station:wmo:42051:1,2015-04-04T12:30:00Z,29.6350,-93.6417,2.0,248.1072939,63.18663229,-99999.0,'11111222,11111222,99999999' 
TABS,ioos:station:wmo:42051:1,2015-04-04T13:00:00Z,29.6350,-93.6417,2.0,249.241228,57.3317931,-99999.0,'11111222,11111222,99999999' 
TABS,ioos:station:wmo:42051:1,2015-04-04T13:30:00Z,29.6350,-93.6417,2.0,247.7819124,60.05917166,-99999.0,'11111222,11111222,99999999' 
TABS,ioos:station:wmo:42051:1,2015-04-04T14:00:00Z,29.6350,-93.6417,2.0,251.0491001,66.42000678,-99999.0,'11111222,11111222,99999999' 
TABS,ioos:station:wmo:42051:1,2015-04-04T14:30:00Z,29.6350,-93.6417,2.0,249.5943272,65.39345609,-99999.0,'11111222,11111222,99999999' 
TABS,ioos:station:wmo:42051:1,2015-04-04T15:00:00Z,29.6350,-93.6417,2.0,255.2797054,56.71129164,-99999.0,'11111222,11111222,99999999' 
TABS,ioos:station:wmo:42051:1,2015-04-04T15:30:00Z,29.6350,-93.6417,2.0,258.7945182,49.29975659,-99999.0,'11111222,11111222,99999999' 
TABS,ioos:station:wmo:42051:1,2015-04-04T16:00:00Z,29.6350,-93.6417,2.0,246.6459826,49.97409829,-99999.0,'11111222,11111222,99999999' 
TABS,ioos:station:wmo:42051:1,2015-04-04T16:30:00Z,29.6350,-93.6417,2.0,255.5013168,51.12817227,-99999.0,'11111222,11111222,99999999' 
TABS,ioos:station:wmo:42051:1,2015-04-04T17:00:00Z,29.6350,-93.6417,2.0,250.9429307,48.66715628,-99999.0,'11111222,11111222,99999999' 
TABS,ioos:station:wmo:42051:1,2015-04-04T17:30:00Z,29.6350,-93.6417,2.0,254.4155235,48.57578203,-99999.0,'11111222,11111222,99999999' 
TABS,ioos:station:wmo:42051:1,2015-04-04T18:00:00Z,29.6350,-93.6417,2.0,255.8108172,61.03188101,-99999.0,'11111222,11111222,99999999' 